Pagina principale
METAR-TAF:

METAR-TAF

Aeroporti :

Salerno, Italia

Aeroporto di Salerno-Costa d'Amalfi

latitudine: 40-37N, longitudine: 014-55E, altezza: 40 m

Osservazione

Il bollettino è stato emesso 1 ora e 3 minuti fa, alle 14:50 UTC
Vento 4 kt da sud
Temperature 16°C
Umidità 63%
Pressione 1012 hPa
Visibilità 10 km o più
Nubi sparse ad un'altezza di 3000 ft

METAR: LIRI 191450Z 18004KT 9999 SCT030 16/09 Q1012

Ora: 16:53 (15:53 UTC)


TAF: mancante

Osservazioni e previsioni meteorologiche di più di 4000 aeroporti (messaggi METAR e TAF).

Le stazioni disponibili sono rappresentate dai dischi gialli e rossi sulla carta.

Puntare il mouse per vedere il nome della stazione.

Clicca sopra per visualizzare le osservazioni e previsioni meteorologiche.

Per cambiare la mappa : fare clic sui pulsanti verdi con una croce nera per ingrandire, il pulsante verde con un trattino per diminuire, o sulla freccia verde per le mappe adiacenti.


METAR-TAF: